GEFSMA_500_meanwind_210.txt.gz
Wind_Speed
6 6 6 6 5 5 5 5 5 5 5 5 5 5 6 6 6 7 7 7 6 7 7 7 7 8 9 9 9 9 10 10 11 12 12 12 13 13 13 13 13 14 14
6 5 6 5 5 5 5 5 5 5 5 5 6 6 6 6 7 7 7 6 7 7 8 8 8 8 8 9 9 9 10 10 11 12 13 13 14 14 13 13 13 14 15
6 6 5 5 5 6 5 6 6 6 6 6 6 6 6 7 7 7 7 7 7 7 7 8 8 8 8 8 9 9 10 10 11 12 13 14 15 15 14 14 14 14 14
6 6 5 6 6 6 5 6 6 6 6 6 7 6 6 6 6 7 7 7 8 7 8 8 8 7 8 8 8 9 10 11 12 12 13 13 14 14 14 14 14 14 14
6 6 5 6 6 6 6 6 6 6 6 6 6 6 6 6 6 7 7 8 9 8 8 8 8 8 8 8 8 9 10 10 11 12 12 12 13 13 13 14 14 14 14
6 6 6 6 6 6 6 6 6 6 6 6 6 6 7 7 7 7 7 7 8 8 8 9 9 9 8 8 8 8 9 10 11 11 11 12 12 13 13 14 14 15 15
7 7 7 6 6 6 6 6 6 6 6 6 7 7 7 7 8 8 8 8 8 8 9 9 9 9 8 8 9 8 9 10 10 10 11 11 12 13 14 14 15 15 15
7 8 8 7 6 7 7 7 7 7 7 7 7 7 8 9 8 8 8 8 9 9 9 9 10 10 10 10 10 10 10 11 11 12 12 12 12 13 14 15 15 16 17
8 8 8 8 7 7 7 7 8 8 8 8 8 8 8 9 9 9 8 8 9 9 10 10 11 10 11 11 11 11 11 11 13 13 13 13 14 14 14 15 16 16 17
9 9 9 9 8 7 7 8 8 8 9 9 9 9 9 9 8 8 9 9 10 10 11 11 11 11 11 12 12 12 12 12 12 13 13 14 14 15 15 15 16 16 17
9 10 10 9 8 8 8 8 8 9 9 10 10 9 9 9 9 10 10 10 11 11 11 11 11 12 12 12 13 12 12 12 13 13 14 15 15 15 16 16 17 17 18
10 10 10 10 10 9 10 10 10 10 10 10 10 10 10 10 10 11 11 11 11 11 12 12 12 12 12 13 13 13 13 13 13 14 14 15 15 15 16 16 17 18 18
10 11 11 11 10 10 10 10 11 11 11 11 11 11 12 12 12 12 12 12 11 12 12 13 13 13 13 13 13 13 14 14 14 14 15 15 15 16 16 17 18 18 18
10 10 10 10 11 11 11 11 12 12 12 13 13 13 13 13 13 13 13 12 12 12 13 14 14 14 14 14 14 14 14 15 15 15 15 16 16 17 17 18 18 19 19
11 11 11 11 11 12 12 12 12 12 12 12 13 13 13 14 14 14 14 13 13 14 14 15 15 15 15 15 15 15 15 16 16 17 17 17 17 17 18 18 19 20 21
12 12 13 12 12 13 13 13 13 14 14 14 14 15 15 15 15 15 15 15 15 15 16 16 16 16 16 16 17 17 17 17 18 19 19 19 19 19 19 20 20 21 21
13 13 13 13 14 14 14 14 14 14 15 15 16 16 16 16 16 16 16 17 17 17 17 17 17 18 18 18 19 19 19 20 20 21 21 21 21 21 21 21 22 22 23
14 14 14 14 14 14 14 15 15 15 16 16 16 17 17 17 17 17 17 18 18 18 18 18 19 19 19 20 20 20 21 21 21 22 22 22 23 23 23 24 24 25 25
14 14 14 15 15 15 15 16 16 16 17 17 17 18 18 18 18 18 19 19 19 19 20 20 21 21 21 21 21 22 22 22 23 23 24 24 25 26 26 27 27 28 28
16 16 16 16 16 17 17 17 17 18 18 18 18 18 19 19 19 20 21 21 22 22 22 22 22 23 23 23 23 23 24 24 25 26 26 26 27 27 28 29 30 31 31
16 17 17 17 17 18 18 18 19 19 19 19 20 20 20 21 21 21 22 23 23 24 24 24 24 24 25 25 25 26 26 27 27 28 28 29 29 29 31 32 32 33 34
17 17 18 18 18 18 18 18 19 20 20 21 21 21 21 22 22 23 24 24 24 25 25 25 26 26 26 27 27 28 28 29 29 30 31 32 33 33 33 34 35 35 36
17 17 17 17 17 18 18 19 20 20 20 21 21 22 22 23 24 24 25 25 26 26 26 27 27 27 28 29 30 30 31 31 31 32 32 33 34 35 35 36 37 38 39
17 18 18 19 19 19 19 20 20 21 21 22 22 23 24 25 25 26 27 27 27 28 29 29 29 30 31 31 32 32 33 33 33 34 35 35 36 36 37 38 39 40 41
18 19 19 19 19 20 20 21 21 22 23 23 24 26 26 26 27 28 28 28 29 30 30 31 31 31 31 32 33 34 34 35 35 35 36 37 37 38 38 39 40 41 42
19 20 20 20 21 21 21 22 23 23 24 25 26 27 28 28 29 29 29 30 31 31 31 31 31 32 33 34 34 35 35 36 36 36 37 38 39 39 39 39 40 42 43

GEFSMA_500_meanwind_216.txt.gz
Wind_Speed
6 6 6 6 6 6 6 6 7 7 6 6 7 6 7 7 7 7 7 7 7 7 8 8 9 9 10 10 11 10 11 11 12 13 14 14 15 15 15 15 14 15 15
7 7 7 6 6 6 6 7 7 7 7 7 8 7 7 8 8 8 8 8 8 7 7 8 8 9 10 10 10 10 10 11 12 13 13 15 15 15 15 14 14 14 14
7 7 7 7 7 7 7 7 7 7 7 8 8 8 8 9 9 9 8 8 8 8 8 8 9 9 10 10 10 10 11 11 11 12 13 14 15 15 15 15 15 14 14
8 7 7 7 7 6 6 7 7 6 7 7 7 8 8 9 9 9 9 8 8 8 9 9 9 10 10 10 10 11 11 11 11 11 12 13 14 14 15 15 15 15 15
8 8 7 7 7 7 7 7 6 6 7 7 7 7 8 8 9 8 8 8 8 9 9 9 10 10 10 10 10 10 11 11 11 11 12 12 13 13 14 14 15 15 16
8 7 7 8 8 7 7 7 7 7 7 7 7 7 7 8 8 8 8 8 9 9 9 9 10 10 10 9 10 10 10 10 11 11 11 11 12 13 14 15 16 16 16
8 7 7 8 7 8 7 7 7 7 7 8 8 8 8 8 8 8 8 9 9 9 10 10 10 9 10 10 10 10 10 10 10 11 11 11 13 14 15 16 16 16 17
9 8 8 8 8 8 8 8 8 8 8 8 8 8 8 8 9 8 9 9 10 10 10 10 10 10 10 10 10 10 11 11 11 12 12 13 13 14 16 16 17 17 17
9 8 8 8 8 9 9 9 9 8 8 8 8 9 9 9 9 9 9 9 10 11 11 11 11 10 11 11 11 11 12 12 12 12 13 14 14 15 16 17 17 18 18
9 9 9 9 9 9 9 9 9 9 9 9 9 10 10 10 10 10 10 11 11 12 12 12 11 12 12 12 12 12 13 13 13 13 14 14 15 15 16 16 17 18 18
9 9 9 9 10 10 10 10 10 10 10 10 10 10 11 11 10 10 11 12 12 13 13 13 13 13 13 13 13 13 13 14 14 14 15 15 15 15 16 16 17 18 19
10 9 9 10 10 10 10 11 11 11 11 11 11 11 11 11 11 11 12 12 13 13 13 13 13 13 13 13 13 14 14 14 14 15 15 16 16 16 16 17 17 19 20
11 10 11 11 10 11 11 11 12 12 12 12 12 12 12 12 12 12 13 13 14 14 14 14 14 14 14 15 14 14 14 15 15 15 16 16 17 17 17 18 19 19 20
11 11 12 12 12 13 13 13 13 13 13 13 13 13 13 13 13 14 14 15 15 15 15 15 15 15 16 16 15 15 15 16 17 17 17 17 18 18 18 19 20 20 20
12 12 12 13 13 13 13 13 13 13 13 13 13 14 14 14 15 15 15 16 16 16 16 16 16 16 17 17 17 17 18 18 18 18 19 19 19 19 19 19 20 20 20
13 13 13 13 13 13 13 13 13 13 14 14 15 15 16 16 16 16 17 17 18 17 17 17 18 18 19 19 19 19 20 19 19 19 19 19 19 19 19 20 20 21 21
13 13 13 13 13 13 13 14 14 14 14 15 16 16 17 17 17 18 18 19 19 19 19 18 18 19 20 20 21 21 21 21 20 20 20 20 20 20 20 21 21 22 22
13 14 14 14 14 14 14 15 15 16 16 16 16 17 17 18 18 19 20 19 20 20 20 19 19 20 20 21 21 22 22 22 22 21 21 21 21 21 22 22 23 24 24
14 15 15 15 15 15 15 16 16 16 17 17 17 17 18 19 19 20 20 20 21 21 21 21 21 21 22 22 22 23 23 23 23 23 23 23 23 24 24 25 26 26 26
15 15 15 15 15 15 16 16 16 17 18 18 18 18 19 19 20 20 20 21 22 22 23 23 23 23 23 24 24 24 24 24 25 26 26 26 26 26 27 28 28 28 29
15 16 15 15 15 16 16 17 17 18 19 19 18 19 19 19 20 21 21 22 22 23 24 24 24 25 25 25 25 26 26 26 27 27 28 28 28 29 29 30 31 31 32
15 16 16 16 16 17 17 18 18 19 19 19 19 20 20 21 22 22 22 23 24 24 25 25 26 26 27 27 26 27 27 27 28 29 30 30 31 32 32 33 33 34 35
16 16 17 17 18 19 20 20 20 20 20 20 21 21 22 22 23 24 24 25 26 26 26 27 28 28 28 28 28 29 29 29 30 30 31 31 33 34 35 35 35 36 36
18 18 19 19 20 21 21 21 21 21 21 22 22 23 23 24 25 26 27 27 27 28 28 29 29 29 29 29 30 30 31 31 32 32 33 33 34 35 36 36 36 37 38
20 20 20 21 21 22 22 22 23 23 23 24 24 25 25 26 27 28 29 29 29 29 30 30 31 31 31 31 32 32 33 33 33 33 34 35 35 35 36 36 37 38 39
21 21 22 22 23 23 23 24 24 25 25 26 26 27 27 28 29 29 30 30 30 31 31 31 32 32 32 33 33 34 35 35 35 35 35 36 36 36 36 37 38 38 39

GEFSMA_500_meanwind_222.txt.gz
Wind_Speed
5 5 5 5 5 5 5 5 5 5 6 6 7 7 7 7 7 8 8 9 8 8 7 7 7 7 8 9 9 10 10 10 11 12 13 13 14 14 15 15 15 16 16
6 6 6 6 6 5 5 5 5 5 5 6 6 7 8 7 8 8 9 9 9 8 7 7 7 8 9 9 10 10 11 11 11 11 12 13 14 15 15 15 16 16 16
6 6 6 6 6 6 6 6 6 6 6 6 6 7 7 7 8 9 9 9 9 9 8 8 9 9 9 9 10 10 10 11 12 12 13 14 15 15 15 15 16 16 16
7 7 7 7 7 6 6 6 6 6 6 7 7 7 8 8 8 8 9 9 9 9 9 8 8 8 9 10 10 10 11 11 12 13 13 14 14 15 15 15 15 16 16
8 8 8 7 7 7 7 7 6 7 7 7 7 7 8 8 8 8 9 9 9 9 9 9 9 9 9 10 10 11 11 12 13 13 14 14 14 15 15 15 16 16 16
8 8 8 8 7 7 7 7 8 8 8 8 7 7 8 8 8 9 9 10 10 9 9 9 9 10 10 10 11 11 12 13 13 13 13 14 15 15 15 16 16 17 17
8 8 8 7 7 7 7 8 8 8 9 8 7 8 8 8 9 9 10 10 10 10 10 10 10 10 11 10 11 12 12 12 12 12 12 13 14 14 15 16 17 17 18
9 9 8 8 8 8 8 9 9 9 9 9 9 9 9 9 9 9 10 10 10 10 10 10 10 11 11 11 11 12 12 12 12 12 12 12 13 14 15 16 17 18 18
8 8 8 9 9 9 9 9 9 10 10 10 10 10 10 9 9 9 10 10 10 11 11 11 11 11 11 12 12 12 13 13 13 13 13 13 13 14 15 16 17 18 19
8 9 9 9 9 9 9 9 10 10 10 11 11 11 11 10 10 10 10 11 11 11 12 12 13 13 13 13 13 13 13 14 14 14 14 14 15 15 16 16 17 18 19
9 9 10 10 10 10 10 10 10 11 11 12 12 12 11 11 11 11 11 11 11 11 12 12 13 13 13 14 14 14 14 14 14 15 15 15 15 16 16 17 18 19 19
9 9 10 10 10 10 10 10 10 11 12 12 12 12 12 12 12 12 12 12 12 12 13 13 13 14 14 14 14 14 15 15 15 15 15 16 16 17 18 18 19 20 21
10 10 10 11 11 11 11 11 12 12 12 12 11 12 12 13 13 14 13 13 13 13 14 14 14 15 15 15 15 15 15 15 15 16 17 17 18 18 19 20 20 21 21
11 11 11 11 12 12 13 13 13 13 13 13 13 13 13 14 14 14 14 14 14 14 15 15 15 16 16 16 16 16 16 16 17 17 18 18 19 20 21 21 22 22 22
12 11 12 12 12 13 13 13 13 14 14 14 14 14 14 15 15 15 15 15 15 15 16 17 17 17 17 17 17 18 18 18 19 19 19 20 20 21 21 21 22 22 23
12 12 12 12 13 13 13 13 14 14 14 14 14 15 15 15 15 15 15 16 16 17 17 18 18 19 19 19 19 20 20 20 21 21 21 21 22 22 22 21 22 22 23
13 13 13 13 13 13 14 14 14 13 13 13 14 14 15 15 16 16 16 16 17 18 18 19 19 20 20 21 21 22 22 22 22 22 22 23 23 23 22 22 23 23 24
13 13 13 14 14 14 14 13 14 14 14 14 14 14 15 16 17 17 17 17 17 18 18 19 19 20 21 21 22 23 23 23 23 23 23 24 24 24 23 23 24 24 25
14 14 14 15 15 14 14 14 15 15 15 15 15 16 16 16 17 17 17 17 18 18 19 20 21 22 22 22 22 23 23 23 24 24 24 25 25 26 26 25 25 26 26
15 15 15 16 15 15 15 15 15 16 16 16 17 17 17 17 17 17 18 19 19 20 21 22 23 23 23 23 23 23 24 24 25 25 26 26 26 27 27 27 28 28 28
17 17 17 16 16 16 16 16 16 16 17 17 18 18 18 18 18 18 19 20 20 21 22 23 24 24 24 24 25 25 26 26 27 27 28 28 29 29 29 30 30 30 31
17 17 18 17 17 17 18 18 18 19 19 19 20 19 19 19 19 20 21 21 22 23 24 24 25 25 25 26 27 27 28 28 29 29 30 30 31 31 31 32 32 32 33
19 19 19 19 20 20 20 20 20 21 21 21 21 20 21 21 22 22 23 23 24 25 26 26 26 26 27 27 28 29 29 30 30 31 31 31 32 32 33 34 34 35 35
19 20 20 21 21 21 21 22 22 22 22 22 23 22 22 23 24 25 25 26 26 27 27 28 28 29 29 29 29 30 30 31 31 32 32 32 32 33 34 35 36 36 36
21 21 21 22 22 22 23 23 23 23 23 23 23 23 24 25 25 26 27 27 27 28 28 28 29 29 30 30 31 31 31 32 32 32 32 33 33 34 34 36 37 37 37
22 22 22 22 23 23 23 23 23 24 24 24 24 24 25 26 27 27 28 27 28 28 29 29 30 31 31 31 32 32 33 33 32 32 33 34 34 35 35 35 36 37 37

GEFSMA_500_meanwind_228.txt.gz
Wind_Speed
6 6 7 7 8 7 7 7 7 7 7 8 8 8 8 8 9 9 9 8 9 9 9 9 9 9 9 9 9 8 9 9 10 10 10 10 11 11 12 12 13 13 13
7 8 7 7 8 7 7 7 7 7 8 8 8 8 8 8 8 8 9 9 9 9 9 9 9 9 9 9 9 9 10 10 10 11 11 11 11 12 12 12 13 13 12
8 8 7 8 8 8 8 7 7 8 8 8 8 8 9 9 9 9 9 9 9 9 10 10 10 10 9 9 9 10 10 11 11 11 11 11 12 12 12 13 13 13 13
9 9 8 8 9 9 8 8 8 8 8 8 8 9 9 9 10 9 9 9 10 10 10 10 11 11 10 10 10 10 11 11 11 12 12 12 12 12 13 13 13 13 14
10 10 9 9 9 9 9 9 9 9 9 9 9 9 9 9 9 9 9 10 10 10 11 11 10 11 11 11 11 11 12 12 12 12 12 13 14 14 15 14 14 14 15
10 10 10 9 9 10 10 9 9 8 9 9 9 9 10 9 10 10 10 10 10 11 11 11 11 11 11 12 12 12 13 13 13 13 13 14 15 15 16 16 15 15 16
10 10 10 10 10 10 10 10 9 9 10 9 9 9 9 10 10 10 11 11 11 12 12 12 12 12 12 12 12 12 13 13 13 13 14 15 15 16 16 16 16 16 16
10 11 10 10 10 10 10 10 10 10 10 10 10 11 11 10 10 11 11 12 12 12 12 12 12 12 12 12 12 12 13 13 13 14 14 14 14 14 15 15 16 16 17
9 10 10 10 10 10 11 11 11 11 11 11 11 12 12 11 12 12 12 12 12 12 12 13 12 12 13 12 13 13 13 14 14 14 14 13 13 13 14 14 14 15 16
9 10 10 11 11 11 11 11 11 12 12 12 12 12 13 13 13 13 13 13 13 12 12 12 13 13 13 13 13 13 14 14 14 14 14 14 13 14 14 15 15 16 17
10 10 11 11 11 11 11 11 12 12 12 13 13 13 14 14 15 14 14 14 14 13 13 13 14 13 14 14 15 15 15 15 15 15 15 15 15 15 15 16 16 17 18
10 11 11 11 10 10 11 11 12 12 13 13 14 14 14 15 15 15 15 14 14 14 14 15 15 15 15 16 16 16 16 16 16 16 16 16 16 16 17 17 18 19 19
11 11 11 11 11 11 12 12 13 14 14 14 14 14 14 14 15 15 15 15 15 15 14 15 16 16 16 17 17 17 17 17 17 17 17 17 18 18 19 19 20 20 20
12 12 12 12 12 13 13 13 14 14 15 15 15 15 15 15 15 15 16 16 16 16 16 16 16 17 17 17 18 18 18 18 18 18 18 19 19 19 20 20 21 21 22
13 13 13 13 13 13 14 14 15 15 15 15 15 15 15 16 16 16 16 16 16 16 16 16 17 18 18 18 19 19 19 19 19 19 19 20 20 21 20 21 21 21 22
14 13 13 14 14 15 15 15 16 16 16 16 16 16 16 16 16 16 16 16 16 16 17 17 18 18 18 19 20 20 20 21 20 20 20 20 21 22 22 22 22 22 22
14 14 14 14 15 15 15 16 16 16 16 16 17 17 17 17 17 17 17 17 17 17 18 18 19 19 20 20 20 20 21 21 22 22 22 22 22 23 23 23 23 23 23
15 15 15 16 16 17 17 17 17 17 17 17 17 18 17 17 17 17 18 18 18 18 19 19 19 20 21 21 21 21 21 22 22 23 23 23 24 24 24 24 24 25 25
16 17 17 18 17 17 18 17 17 17 17 17 17 17 17 18 18 19 19 19 19 19 19 19 19 20 21 21 22 22 23 23 23 24 24 24 24 25 25 26 26 27 27
18 18 19 19 18 18 18 18 18 19 19 19 18 18 18 18 19 19 19 20 20 20 20 21 21 21 21 22 22 22 22 23 23 24 24 25 25 26 27 27 28 28 28
19 19 19 19 19 18 19 19 20 20 20 20 19 19 19 20 20 20 20 21 21 21 22 23 22 23 23 23 23 23 23 23 24 24 25 26 27 27 28 28 29 29 29
20 20 20 19 19 19 20 20 20 20 20 20 20 20 20 21 21 22 22 22 22 23 23 24 24 24 24 24 24 25 25 25 25 26 26 27 28 28 29 29 30 30 31
21 21 21 20 20 20 20 21 21 21 21 22 22 22 22 22 22 23 23 24 24 24 24 25 25 25 25 26 26 27 26 26 27 27 28 28 29 30 31 31 31 31 32
22 22 22 22 22 22 22 22 22 22 22 23 23 23 23 23 23 24 24 24 25 25 26 26 26 26 26 27 27 27 27 26 27 28 29 29 30 30 31 32 32 32 33
23 23 23 23 24 24 24 24 24 24 24 24 24 24 24 24 25 25 25 25 25 25 26 26 26 27 27 27 28 28 28 28 28 29 30 31 31 31 31 31 32 33 34
24 24 24 24 24 24 25 25 25 25 25 24 25 25 25 25 26 26 26 25 26 27 27 27 27 27 27 27 28 28 29 30 30 29 30 31 31 32 32 33 33 34 35

GEFSMA_500_meanwind_234.txt.gz
Wind_Speed
8 8 9 8 8 8 8 9 8 8 8 8 8 8 8 8 8 9 9 10 10 9 9 8 8 8 8 8 9 9 9 10 11 11 11 11 11 12 13 13 13 13 14
9 9 9 9 9 9 9 9 9 8 8 8 8 8 8 8 8 8 9 9 10 10 9 9 9 9 9 9 9 9 9 10 11 11 12 12 13 13 14 14 14 14 15
9 9 9 9 9 9 9 9 9 9 8 8 8 8 8 8 8 9 9 9 9 9 9 9 10 10 10 10 10 10 10 11 11 12 12 13 13 13 14 14 15 14 15
8 9 9 10 9 9 10 9 9 9 9 9 9 9 9 9 9 9 9 9 9 10 10 10 10 11 11 11 11 11 11 11 12 12 12 13 14 14 14 15 15 15 15
8 8 9 9 10 10 10 9 9 9 9 9 9 9 9 9 9 10 10 10 10 10 10 11 11 11 11 11 12 12 12 13 13 13 13 14 14 15 16 16 16 16 16
9 8 8 9 9 10 10 10 10 10 10 10 10 9 9 10 10 11 11 11 11 11 11 11 12 12 12 12 12 12 13 14 14 14 14 15 16 16 17 17 17 17 17
8 9 9 9 9 9 10 10 10 10 10 10 10 9 9 10 11 11 11 11 11 11 11 12 12 12 13 13 13 13 14 14 14 14 15 16 16 17 17 18 18 18 18
8 8 9 9 10 10 10 10 10 10 10 10 10 10 10 11 11 11 11 12 12 12 12 12 12 12 13 14 14 14 14 14 15 16 16 16 16 17 17 18 18 18 18
9 9 9 10 10 10 10 10 10 10 10 10 10 11 11 12 11 12 12 12 13 13 13 13 13 13 13 14 14 14 14 14 15 16 16 16 15 15 15 16 16 16 17
9 9 9 9 9 9 10 10 11 11 11 11 11 11 12 12 12 12 12 13 13 13 13 14 14 14 14 15 14 14 15 15 16 16 16 16 15 15 15 16 16 16 17
9 9 9 9 9 9 10 10 11 11 11 12 12 12 12 13 13 13 13 13 13 14 14 14 15 15 15 15 15 15 15 16 17 17 17 16 16 16 16 16 16 17 18
10 10 10 10 10 10 10 11 11 11 11 12 12 12 13 14 14 14 13 14 14 15 15 15 15 15 15 16 16 16 17 17 17 17 17 17 16 16 16 17 17 18 18
11 11 11 11 11 11 12 12 12 12 13 13 13 14 14 14 14 14 14 14 15 15 15 16 16 16 16 17 17 17 18 17 17 17 17 17 17 17 17 17 18 18 19
12 12 12 12 13 13 13 13 13 14 14 14 14 14 14 15 15 16 16 16 16 16 16 16 16 16 17 17 17 18 18 18 18 18 18 17 18 18 18 18 19 20 20
12 13 13 13 13 13 13 13 14 13 14 15 16 16 16 16 16 16 17 17 16 16 16 16 17 17 17 16 17 18 18 18 18 18 18 18 18 18 19 19 20 20 20
13 13 14 13 13 13 14 14 14 14 15 16 16 16 16 17 17 17 17 17 17 17 17 17 17 18 18 18 18 18 18 19 19 19 19 19 19 19 19 20 20 20 21
14 14 15 15 14 15 15 16 16 16 16 16 17 16 16 16 17 17 17 17 17 17 17 17 18 18 19 19 18 18 19 19 19 20 20 20 20 20 20 21 21 21 21
14 15 15 16 16 16 17 17 17 17 17 17 17 17 17 17 17 17 18 18 18 17 18 18 18 19 19 20 20 19 19 19 20 20 20 21 21 22 22 22 22 22 22
15 16 16 17 17 17 18 18 17 17 18 18 18 18 18 18 18 18 18 18 18 19 19 19 19 19 20 20 21 21 20 20 21 22 21 22 22 23 23 24 24 24 24
16 17 17 18 18 18 18 18 18 18 18 19 18 19 19 19 19 19 19 19 19 19 20 20 20 20 19 20 20 21 21 21 22 23 23 23 23 23 24 25 26 26 26
18 18 19 19 19 19 18 19 19 19 19 19 19 19 20 20 20 20 20 20 20 20 21 20 20 20 20 20 21 22 22 22 22 23 23 23 24 24 25 26 27 27 27
19 19 20 20 21 21 21 20 20 20 20 20 20 20 20 20 21 21 21 20 20 20 21 21 21 22 22 22 22 23 24 24 24 24 24 24 25 26 26 27 27 28 29
20 20 20 21 21 21 21 21 21 21 21 21 21 21 21 21 21 21 21 21 21 21 21 22 22 22 23 24 24 25 25 25 25 25 26 26 26 27 27 28 28 29 29
21 21 21 22 22 22 22 22 22 22 22 22 22 22 22 21 21 22 22 22 22 22 23 23 23 24 24 25 26 26 26 26 26 26 27 27 27 28 28 29 29 30 30
22 22 22 23 22 22 23 22 22 22 23 23 23 23 23 22 23 23 23 23 23 24 24 24 25 25 26 26 27 27 27 27 27 27 28 29 29 29 29 29 30 31 31
23 24 24 24 24 23 23 23 24 24 24 24 23 23 23 23 23 24 24 24 24 24 25 25 26 27 28 28 28 28 28 28 28 29 30 30 30 30 30 30 31 32 32

GEFSMA_500_meanwind_240.txt.gz
Wind_Speed
9 9 9 8 8 8 9 10 10 10 10 10 10 10 10 9 10 10 11 11 11 10 10 10 9 9 9 9 10 11 12 12 12 12 13 13 13 13 13 13 13 13 13
9 10 9 8 9 9 10 10 10 10 10 10 10 10 10 10 10 10 10 10 11 11 10 10 10 10 10 10 11 12 12 12 13 13 13 14 14 14 14 13 13 14 15
9 10 9 9 9 10 10 10 10 10 10 10 10 10 10 10 10 10 10 10 10 10 10 11 11 10 10 11 11 11 12 12 13 13 14 15 15 14 14 14 14 15 16
9 9 9 10 10 10 10 10 10 10 10 11 10 10 10 11 11 11 11 11 11 11 11 11 11 11 11 11 12 12 13 13 14 14 15 15 15 15 16 16 16 16 16
8 8 9 9 10 11 11 11 10 10 11 11 10 10 11 11 11 11 11 12 12 12 12 12 12 12 12 13 14 14 14 15 15 15 15 16 16 17 17 17 17 17 17
7 8 8 9 9 11 11 11 10 10 10 10 11 10 10 11 11 11 12 12 12 12 12 13 13 13 13 13 14 15 15 15 15 16 16 16 16 17 18 18 18 18 18
8 9 9 10 10 11 11 11 10 10 10 11 11 11 11 11 12 12 12 12 12 13 13 13 14 14 14 14 15 15 15 15 16 16 17 17 17 18 19 20 20 19 19
9 9 9 9 9 9 9 10 10 11 11 12 12 11 11 12 12 12 12 13 13 13 14 14 15 14 15 15 15 15 15 15 16 16 17 18 18 19 19 20 20 20 20
9 9 9 9 9 9 9 9 10 11 11 11 12 12 12 12 12 12 12 13 13 14 14 14 15 15 15 15 15 15 16 16 16 17 18 18 19 19 19 19 19 19 19
10 10 10 9 10 10 10 10 10 10 11 11 11 12 12 12 13 13 14 14 14 14 15 15 15 15 15 16 16 16 16 16 17 17 18 19 19 20 20 20 20 20 20
10 10 10 10 10 11 11 10 11 11 11 11 11 12 12 13 13 14 14 14 15 15 16 16 16 16 16 16 16 16 17 17 17 18 18 19 19 19 19 19 19 19 20
10 10 10 11 11 12 12 11 12 12 12 12 12 13 14 14 14 15 15 15 15 16 16 16 16 16 16 16 16 17 17 18 18 18 18 18 18 18 19 18 19 19 19
10 10 11 11 12 12 12 12 12 13 13 14 14 15 15 16 16 16 16 16 16 16 16 17 17 16 16 16 17 18 18 17 17 18 18 18 17 18 18 18 18 19 19
10 11 11 11 12 13 13 14 14 14 14 15 15 16 16 17 17 16 16 16 16 16 16 16 16 17 17 17 17 18 18 18 18 18 18 17 17 17 18 18 18 19 19
11 12 12 13 13 14 14 15 15 15 16 16 16 16 17 17 17 16 16 16 16 16 16 16 16 17 17 18 18 18 18 18 18 18 18 18 18 18 18 18 19 19 20
13 13 13 14 15 15 15 15 16 16 16 17 17 17 17 16 16 16 16 16 17 17 17 17 17 18 18 19 19 19 19 19 19 18 19 19 19 19 19 19 20 21 21
14 14 15 15 15 16 16 16 17 17 17 18 17 17 17 16 16 17 17 17 18 18 18 18 18 19 19 19 19 19 19 19 19 20 20 20 20 20 20 21 22 23 23
15 15 15 16 17 17 17 18 18 18 17 17 17 17 18 17 17 18 18 19 19 19 19 19 20 20 20 20 20 20 19 19 20 20 21 21 21 22 22 23 23 23 24
16 16 17 18 18 19 19 18 18 17 17 18 18 18 18 18 18 19 20 20 20 20 21 21 20 21 21 21 21 21 21 21 21 22 22 22 22 22 23 23 23 24 24
18 19 19 19 20 20 19 19 19 18 18 19 18 18 19 19 20 20 21 21 21 21 21 21 21 21 21 22 22 22 22 22 23 23 23 23 23 23 23 23 24 25 25
20 20 20 20 20 20 20 20 20 20 20 20 20 20 21 21 22 22 22 22 22 21 21 21 21 21 21 22 23 23 23 24 24 24 24 24 24 24 24 25 25 25 25
21 21 21 21 21 21 21 21 21 21 21 21 21 21 22 22 22 22 22 22 22 21 21 21 21 21 22 22 23 23 24 23 23 24 24 25 25 25 25 26 26 26 26
21 22 22 22 22 22 22 22 22 22 22 22 22 22 22 22 22 21 21 21 21 21 21 21 22 23 23 23 24 24 24 24 24 25 25 26 26 27 27 27 27 27 28
23 23 23 23 23 23 23 23 23 23 23 23 22 22 22 22 22 22 22 22 22 22 23 23 24 25 25 25 25 25 25 26 26 26 26 27 28 28 28 28 28 28 28
25 25 25 25 25 25 24 24 24 25 24 24 23 23 23 23 23 24 24 24 24 24 25 25 25 25 26 26 26 26 26 27 27 27 28 28 28 28 28 29 29 29 29
26 26 26 26 25 25 25 25 25 25 25 25 24 23 24 25 25 25 25 25 25 25 26 26 26 26 26 27 28 28 28 29 29 29 30 30 29 28 28 28 29 30 30

GEFSMA_500_meanwind_246.txt.gz
Wind_Speed
7 7 8 8 8 8 8 9 8 8 9 9 10 10 10 10 10 10 10 11 12 12 11 10 10 10 11 12 12 12 13 13 13 13 13 13 13 14 13 13 13 13 14
8 8 9 9 9 9 9 9 9 9 10 10 10 11 11 11 11 10 11 11 12 12 11 11 11 10 10 11 12 13 13 14 13 13 13 13 14 15 14 14 14 14 14
8 9 10 10 10 10 10 10 10 10 10 10 11 11 11 11 11 12 12 11 11 10 11 11 11 11 11 10 11 12 12 13 13 13 14 14 15 15 15 15 15 16 16
8 9 9 9 9 10 10 11 11 11 11 11 11 11 11 11 11 12 12 12 12 12 12 12 12 12 12 11 12 13 13 13 14 14 15 15 15 15 16 16 16 16 17
8 9 9 8 9 9 10 10 10 10 11 11 11 12 12 12 12 12 12 12 12 12 13 13 13 13 13 13 13 14 14 14 14 15 15 16 16 17 17 17 17 18 18
7 7 8 9 9 9 10 11 11 11 11 11 11 12 12 11 12 12 12 12 13 13 14 14 14 14 14 13 14 14 15 15 15 16 16 17 17 18 18 18 18 18 19
7 7 8 9 10 10 11 11 11 11 11 11 11 11 11 11 11 12 13 13 13 14 14 14 14 14 15 15 15 15 15 15 15 16 16 17 18 18 19 19 19 20 20
7 8 9 9 10 11 11 11 11 11 10 11 11 10 11 11 12 12 13 13 14 15 15 15 15 15 15 16 16 17 16 16 16 16 17 17 17 18 19 20 20 20 21
8 9 10 11 11 11 11 12 11 11 11 10 11 11 12 12 12 13 13 13 14 15 15 16 16 16 16 17 16 16 16 17 17 17 17 18 17 18 18 18 19 20 21
9 9 10 10 11 11 11 11 11 10 11 11 11 12 12 13 13 13 14 15 15 16 16 16 17 17 17 17 17 17 17 17 17 17 17 17 18 18 19 19 19 20 20
9 10 10 10 11 11 11 11 11 11 11 12 12 13 13 13 13 14 15 15 16 16 17 17 18 17 17 17 18 17 17 17 17 17 17 18 19 19 19 20 20 20 20
10 11 11 11 11 11 11 11 12 12 12 13 13 14 14 14 15 15 15 16 16 17 17 17 17 17 17 17 17 17 17 17 17 17 18 18 19 20 20 20 20 20 20
10 11 11 11 11 12 12 13 12 13 13 13 14 14 15 15 16 16 16 16 16 16 17 17 16 16 16 16 16 16 17 17 17 18 19 19 20 20 20 20 19 20 20
12 12 12 12 12 13 13 14 14 14 14 15 15 15 15 16 16 16 16 16 16 16 16 16 16 16 16 16 16 16 17 18 18 18 19 19 19 19 19 19 19 19 20
13 13 13 13 13 14 14 14 15 15 16 16 16 16 16 16 16 16 16 16 16 16 16 16 16 16 17 17 17 17 18 19 19 19 19 19 20 20 19 19 19 20 20
13 13 14 14 14 15 15 15 15 16 16 16 16 16 16 16 16 17 16 16 16 16 16 17 17 17 18 18 18 18 19 20 20 19 20 20 20 20 20 20 20 20 21
15 15 15 15 15 16 16 16 17 17 16 16 16 16 16 16 17 17 17 17 17 17 17 18 18 19 19 19 19 20 20 20 20 20 21 21 20 20 20 21 21 21 22
16 17 17 16 16 16 17 17 17 17 16 16 17 17 17 17 17 18 18 18 18 18 19 19 20 20 20 21 21 21 21 21 21 21 21 21 22 22 22 22 23 23 24
17 18 18 17 17 18 18 18 18 17 17 17 17 17 18 18 18 18 19 19 19 20 20 20 20 20 20 20 21 21 21 22 22 21 21 21 22 22 22 23 24 25 25
18 18 19 19 19 19 19 19 18 18 18 19 19 19 19 20 20 20 20 21 21 21 21 20 20 20 20 20 21 22 22 22 22 22 22 23 23 23 24 24 25 25 26
19 20 20 20 20 20 19 19 19 19 20 20 21 21 20 21 21 21 21 21 21 21 21 21 21 21 21 21 22 23 23 23 23 24 24 24 25 25 25 26 26 26 26
21 22 22 21 20 20 20 20 20 20 21 21 21 22 22 22 22 22 22 21 21 21 22 22 22 23 23 23 23 24 24 24 24 24 25 25 26 26 26 27 27 27 27
22 23 23 22 22 22 22 22 22 22 22 22 22 22 23 24 23 23 22 22 22 23 23 23 24 24 25 25 25 25 25 25 25 25 25 26 27 27 28 28 28 28 27
23 24 24 24 24 24 24 24 24 24 23 23 24 24 24 24 24 23 23 23 23 23 24 24 25 25 26 27 27 27 27 26 27 27 27 27 28 28 28 29 28 28 28
25 25 25 26 26 25 26 26 26 25 25 25 25 26 26 25 25 25 25 25 24 25 25 25 26 27 27 28 28 28 27 28 28 28 29 29 29 29 29 29 29 29 29
26 26 26 27 27 27 26 27 27 27 27 27 27 27 27 27 26 26 26 26 26 27 27 27 28 28 28 27 27 27 27 28 28 29 29 29 29 30 29 29 29 29 29

GEFSMA_500_meanwind_252.txt.gz
Wind_Speed
8 8 8 8 8 9 9 9 10 10 11 11 11 11 12 12 12 12 12 12 12 11 10 10 10 10 10 10 11 12 13 13 13 13 13 13 12 13 13 13 13 13 12
8 8 8 8 8 9 10 10 10 10 11 11 11 12 12 12 13 13 13 12 11 11 10 10 10 10 10 9 9 11 12 13 14 13 13 13 13 13 13 13 13 13 12
8 8 8 8 9 9 10 10 11 11 12 12 11 11 12 12 13 13 13 12 12 11 11 11 11 11 11 11 11 12 12 12 12 13 13 13 13 13 13 13 13 14 14
8 8 8 8 9 9 10 10 11 10 11 11 12 12 12 12 12 12 13 13 13 12 12 12 12 12 12 11 12 12 12 12 12 12 13 14 14 14 14 14 14 14 14
8 9 9 9 9 9 9 9 10 10 10 11 11 11 12 12 12 12 12 13 13 13 13 12 12 12 12 12 12 12 12 13 13 13 14 14 15 15 15 15 15 15 15
9 9 9 9 9 8 9 9 10 10 11 12 11 11 12 12 12 12 12 13 13 13 13 13 13 13 13 13 13 13 13 14 14 15 15 16 16 16 16 16 15 16 16
9 9 9 9 9 9 10 10 10 11 12 12 11 12 13 13 13 13 13 13 13 13 13 13 13 13 13 13 14 14 14 15 15 16 16 16 17 17 17 16 16 16 16
9 9 9 9 10 10 11 11 11 11 12 12 12 12 12 12 13 13 13 14 14 14 14 14 14 14 15 15 16 16 15 15 16 16 16 16 16 16 16 16 17 17 17
9 9 10 11 11 11 11 11 11 11 11 12 12 12 12 12 13 14 14 14 14 14 14 15 15 15 16 16 16 17 16 16 16 16 15 15 15 16 16 17 17 17 17
10 11 11 12 12 12 12 11 11 11 12 12 12 12 12 13 13 13 14 14 14 14 14 15 15 15 15 16 16 17 17 17 16 16 16 16 16 16 16 17 17 17 17
11 11 12 12 12 12 12 11 11 12 12 12 12 13 13 13 14 14 14 15 15 15 15 15 15 15 15 15 15 16 16 17 17 17 16 16 16 16 16 17 17 17 18
12 12 12 12 12 12 11 12 12 12 13 13 13 13 14 14 15 15 15 15 16 16 16 15 15 15 15 15 15 15 16 16 17 17 17 17 17 17 17 18 18 19 19
13 13 13 12 12 12 12 13 13 13 13 14 14 15 15 15 15 15 15 16 16 16 16 16 15 15 15 15 16 16 16 16 16 17 17 18 18 18 19 19 20 20 20
14 14 14 13 14 14 14 14 14 14 14 14 15 16 16 16 16 15 16 16 17 17 17 16 16 15 15 16 16 16 15 15 16 16 17 18 18 19 20 20 21 21 21
14 15 15 15 15 15 15 15 15 15 15 16 16 16 16 16 16 16 17 17 17 17 17 17 17 17 16 17 17 17 16 16 17 17 17 18 19 19 20 20 21 22 22
16 16 17 17 17 16 16 16 16 16 17 17 16 16 16 17 17 17 18 18 18 17 17 17 18 18 18 18 18 17 17 17 18 18 18 18 19 19 19 20 20 21 21
17 17 18 18 18 18 17 17 17 17 17 17 17 17 17 17 18 18 18 18 19 18 18 18 18 18 18 19 18 18 18 18 19 19 19 19 19 19 19 19 19 19 20
18 18 18 18 18 18 19 19 19 18 17 17 17 17 17 18 18 19 19 20 20 20 20 19 19 19 19 19 19 19 19 19 20 20 20 20 20 20 20 20 20 20 20
19 19 20 20 19 19 20 20 20 19 18 17 17 18 19 19 19 19 20 21 21 21 21 21 21 20 20 20 20 20 20 20 21 22 22 21 21 21 21 21 21 21 21
20 20 21 21 21 21 21 20 20 19 18 18 18 19 20 20 20 21 21 21 22 22 22 22 21 21 21 21 21 21 21 22 22 22 23 23 23 23 23 23 23 23 23
22 22 22 22 22 22 21 20 20 19 19 20 20 20 20 21 21 21 21 22 22 23 23 23 23 22 22 22 23 22 22 23 23 23 23 23 23 23 24 24 24 24 25
23 23 23 23 23 22 21 21 21 21 21 21 22 21 21 21 22 23 23 24 24 24 24 24 24 24 24 24 24 24 24 24 24 24 24 24 24 24 24 24 24 25 26
24 24 24 24 24 23 23 22 22 22 22 22 23 23 23 23 23 24 25 25 25 26 26 26 25 26 26 26 26 26 25 25 25 25 25 25 25 26 26 25 25 25 26
26 26 25 25 25 24 24 24 24 25 24 24 24 24 25 26 26 26 26 26 27 26 26 27 27 27 27 27 27 26 26 26 25 25 25 25 25 25 25 26 26 27 27
27 27 27 27 26 26 26 26 27 27 26 26 26 26 27 27 28 27 27 27 27 27 28 28 28 28 27 27 27 27 26 26 26 26 27 27 26 26 26 27 27 27 28
28 28 28 28 27 27 27 28 28 28 28 28 28 28 28 29 29 29 29 28 28 28 28 28 28 27 28 28 28 28 28 28 28 27 28 28 27 27 27 28 28 29 28

GEFSMA_500_meanwind_258.txt.gz
Wind_Speed
8 8 8 8 8 9 9 10 10 10 10 10 11 11 11 11 11 11 11 11 11 11 10 11 10 10 10 11 12 12 12 12 13 13 13 13 13 13 13 13 14 14 14
7 8 9 9 9 9 10 10 10 9 9 10 11 11 12 12 12 12 11 11 10 11 11 11 11 11 11 11 11 11 12 13 13 13 13 13 13 14 14 14 14 15 15
7 7 8 9 9 9 10 10 9 9 10 10 11 12 12 12 12 12 12 11 11 11 11 12 11 11 12 12 11 11 12 13 13 13 13 14 14 14 14 13 13 14 14
7 7 7 8 8 8 8 9 9 9 9 10 11 11 12 12 12 12 12 12 12 12 12 12 11 11 12 11 12 12 12 12 12 13 13 13 14 14 14 13 13 13 14
7 7 7 8 8 8 8 7 7 8 9 9 10 10 10 11 11 12 12 11 11 12 12 12 12 12 12 11 11 12 12 13 13 14 14 15 14 14 14 14 14 14 14
7 7 7 8 8 8 8 7 8 8 8 9 9 9 10 10 11 11 11 11 12 12 12 12 12 13 13 12 12 12 13 13 14 14 14 15 15 15 14 15 15 15 15
8 8 8 8 8 8 8 8 8 8 8 8 9 9 10 10 10 11 12 12 12 12 13 13 13 13 13 13 14 14 14 14 14 14 15 15 14 15 15 15 16 16 16
7 8 7 8 8 8 8 8 8 9 9 9 10 10 10 10 10 11 11 11 12 12 13 13 13 13 14 14 14 15 15 15 15 15 15 15 15 15 15 15 16 16 16
7 8 9 9 9 9 9 9 10 9 9 9 9 9 10 10 11 11 11 11 12 12 12 13 13 13 13 13 14 14 15 15 15 15 15 15 15 15 15 15 15 16 16
9 10 10 10 10 10 10 10 10 10 10 10 10 10 10 11 11 11 11 12 12 12 12 12 13 13 13 13 14 14 14 15 15 16 16 16 16 16 16 15 15 16 16
10 11 10 10 10 10 10 10 11 11 11 11 11 11 11 11 11 11 11 12 12 12 12 13 13 14 14 14 14 15 15 15 16 16 16 16 16 16 16 17 17 16 17
11 11 11 10 10 10 11 11 11 11 11 12 11 11 12 12 12 12 11 12 12 13 13 13 13 14 14 15 15 15 15 15 15 16 16 16 16 17 17 18 18 18 18
11 11 12 11 11 11 12 12 12 12 12 12 12 13 13 12 13 13 13 13 13 13 13 13 14 14 15 15 15 15 15 15 15 16 16 16 17 18 18 18 19 19 19
13 13 13 13 13 13 13 13 13 13 13 13 13 14 13 13 13 13 13 12 13 13 13 14 14 14 15 15 16 16 16 16 16 16 17 17 18 18 19 19 19 20 20
14 14 14 14 14 14 14 14 14 14 14 14 14 14 14 14 14 14 14 13 13 14 14 14 15 15 16 16 16 16 17 18 17 18 18 18 18 19 19 20 20 21 21
15 15 15 15 16 15 15 15 16 16 16 15 15 15 15 15 15 15 15 15 15 15 15 15 15 15 16 16 17 18 18 18 18 18 19 19 19 20 20 20 21 21 22
16 16 16 17 17 17 17 17 17 17 17 17 17 16 17 17 16 17 16 16 16 16 16 16 16 16 17 17 17 18 18 18 19 19 19 20 20 21 21 21 22 22 23
17 17 17 18 18 18 18 18 19 19 19 18 18 17 17 17 17 17 17 17 17 17 17 18 18 17 18 18 19 18 19 19 20 20 21 21 22 22 22 23 23 24 24
17 18 18 18 18 19 19 20 20 20 20 20 20 20 19 19 19 19 18 18 18 18 19 19 19 19 19 19 19 20 20 21 21 21 22 22 22 22 23 24 24 24 24
18 18 19 20 20 21 21 21 21 20 20 21 21 21 21 21 20 20 20 19 20 20 20 21 21 21 21 21 21 21 22 22 22 23 22 22 22 23 23 24 24 24 24
20 20 20 21 22 22 21 20 20 21 21 21 22 22 22 22 22 22 22 21 21 21 21 21 21 22 22 22 22 23 23 23 23 23 23 23 23 24 24 24 25 24 24
21 21 21 22 22 22 22 22 22 22 22 22 22 22 22 23 23 22 23 23 23 22 22 22 22 23 22 23 23 23 24 24 24 23 23 24 24 24 25 24 24 24 24
22 23 23 23 23 24 24 24 24 24 24 23 23 23 24 24 23 23 24 24 23 23 23 23 24 23 24 23 23 23 24 24 24 24 25 25 24 24 25 25 24 24 24
24 24 25 25 25 25 25 25 26 26 25 25 25 25 25 25 25 25 25 25 25 25 24 24 24 24 24 24 24 24 25 25 25 26 26 26 26 26 26 25 25 25 25
26 26 25 26 26 26 26 27 27 27 27 27 27 27 27 27 26 26 26 26 26 26 26 26 25 25 25 26 26 26 26 26 27 27 28 27 27 27 27 26 26 26 27
27 26 27 27 27 28 28 28 28 28 28 29 29 29 28 28 28 28 28 27 27 27 28 28 27 27 26 27 27 27 28 28 28 28 29 29 28 27 27 27 27 28 28

GEFSMA_500_meanwind_264.txt.gz
Wind_Speed
7 8 8 9 10 10 10 10 11 12 12 12 11 11 10 11 11 11 11 11 12 12 12 12 12 12 12 11 11 11 12 13 13 13 14 14 14 14 14 14 13 13 13
8 8 8 8 8 9 9 10 11 11 11 12 12 12 12 11 11 12 12 12 13 13 12 12 12 12 11 11 11 12 13 13 13 14 14 15 15 15 14 14 14 14 14
7 7 7 7 8 8 8 9 10 10 11 12 12 12 12 12 12 12 12 13 13 13 13 12 12 12 12 13 13 13 13 13 14 14 14 14 15 15 14 14 14 14 14
7 7 7 7 7 8 8 8 9 9 10 11 11 12 12 11 12 12 12 13 13 13 13 12 12 12 13 13 13 13 14 13 13 14 14 14 14 14 14 14 14 15 15
8 7 7 7 7 8 8 8 8 8 9 10 10 11 11 11 12 12 12 13 13 13 13 13 13 13 13 13 13 13 13 13 14 14 14 14 14 14 14 15 14 14 14
8 7 7 7 8 7 8 8 8 9 9 9 10 10 11 11 12 12 12 12 13 13 14 14 14 14 13 13 13 14 13 13 14 15 15 15 15 15 15 15 15 15 15
8 8 8 8 8 9 9 9 9 9 9 9 10 10 10 11 12 12 13 13 13 13 13 13 14 14 15 14 14 14 14 14 15 15 15 15 15 15 15 16 16 16 16
8 9 9 9 9 9 9 9 9 10 10 10 10 10 11 11 12 12 13 13 13 14 14 14 14 14 14 14 14 14 15 15 15 15 15 14 15 15 16 15 15 16 16
9 10 10 10 10 10 10 10 11 11 11 11 11 11 12 12 13 13 12 12 13 14 14 14 14 14 13 14 13 13 14 14 14 14 14 14 14 15 15 15 16 16 16
9 10 10 11 11 11 11 11 12 12 12 12 12 12 13 13 13 13 13 13 13 14 14 14 14 14 14 14 14 14 14 14 14 14 14 15 15 15 15 15 15 16 16
10 11 11 11 12 12 12 12 12 13 13 13 13 13 13 13 13 13 13 14 14 14 14 14 14 14 14 14 14 14 14 15 15 15 15 15 16 16 16 16 16 16 17
12 12 11 12 12 13 13 13 14 14 14 14 14 14 14 14 14 14 14 14 14 14 14 14 14 14 14 14 15 15 15 15 15 16 16 16 16 16 16 17 17 17 17
13 13 13 13 13 14 14 14 14 15 15 15 15 15 15 15 15 15 15 15 14 14 14 14 14 14 14 15 15 15 16 16 16 17 17 17 17 17 17 17 18 18 18
15 15 15 15 15 15 15 15 16 16 16 16 16 16 16 16 16 16 15 15 15 15 15 15 15 15 16 16 16 16 17 17 17 18 18 18 18 18 19 19 19 19 20
16 16 16 16 16 16 16 17 17 17 17 17 17 17 17 17 16 16 16 16 16 16 16 16 17 16 17 17 18 18 18 18 18 19 19 19 20 20 20 20 20 21 21
18 17 17 18 18 17 18 18 18 18 19 19 19 18 17 17 17 17 16 16 17 17 17 17 17 18 18 18 19 19 19 19 19 20 20 20 21 21 21 21 21 21 21
19 19 19 19 19 19 19 19 19 20 19 19 19 18 18 18 18 18 18 18 18 19 19 18 18 18 19 19 19 19 20 20 20 20 20 20 21 21 22 22 21 21 22
20 20 20 20 20 20 21 21 20 20 20 20 20 20 20 20 20 20 20 20 20 20 20 20 19 20 19 20 20 20 20 21 21 21 21 21 21 21 22 21 22 22 23
19 20 21 21 21 21 21 21 21 21 21 21 21 21 22 22 22 21 21 21 20 20 21 21 20 20 20 20 21 21 21 21 21 21 21 22 22 22 22 22 23 23 23
21 21 21 21 22 22 22 22 22 22 22 22 22 22 22 22 22 22 22 22 22 21 21 22 22 21 21 21 21 22 22 22 22 22 22 22 22 23 23 23 23 24 24
21 22 22 23 23 23 23 23 23 23 22 22 22 23 23 23 23 22 22 23 23 23 23 23 23 23 23 22 23 22 22 23 23 22 23 23 23 23 23 23 24 24 24
22 23 23 24 23 23 24 23 23 24 23 23 23 24 24 24 24 24 24 25 25 24 25 25 25 25 24 24 24 24 23 23 24 24 24 24 23 23 23 24 24 24 25
23 24 24 25 25 25 25 25 25 25 25 25 25 25 25 25 25 25 25 26 26 26 26 26 26 25 26 25 25 25 25 25 25 25 25 24 24 24 24 24 24 25 25
25 25 25 25 25 26 26 26 26 26 26 27 27 27 27 27 27 27 27 27 27 27 27 27 27 27 27 27 26 26 26 26 26 26 26 25 25 25 25 25 25 25 25
27 27 27 27 27 27 27 27 28 28 27 27 27 28 29 29 29 29 29 29 29 29 29 29 29 29 28 28 27 27 27 27 27 27 28 27 26 26 26 27 27 26 26
29 29 29 28 28 29 29 29 29 29 29 29 30 30 30 30 31 31 31 31 31 30 30 30 30 30 30 29 29 28 28 28 28 28 29 29 29 28 27 28 28 28 28

GEFSMA_500_meanwind_270.txt.gz
Wind_Speed
7 7 7 7 8 8 9 9 10 10 10 10 10 10 10 10 10 11 11 11 12 13 12 12 12 12 13 13 12 13 13 13 14 14 14 13 12 12 12 12 13 12 12
8 8 8 8 8 8 8 8 9 9 9 9 9 10 10 11 11 10 9 10 11 11 11 11 11 12 12 13 13 13 14 14 15 15 15 14 14 14 13 13 13 13 13
8 8 8 8 9 8 8 9 9 9 8 9 9 9 10 11 11 10 10 10 10 9 10 11 11 11 12 12 13 13 13 13 14 15 15 15 15 15 15 14 14 14 14
7 8 8 9 9 9 10 10 10 10 9 9 9 10 10 11 11 11 12 12 12 11 11 11 11 10 11 12 13 13 13 13 14 14 15 15 15 15 15 15 14 15 15
8 8 8 9 9 9 9 10 10 9 9 10 10 10 10 11 11 12 12 12 13 13 13 13 13 12 12 12 13 14 14 13 14 14 14 14 14 14 14 14 14 15 15
9 9 9 9 9 9 9 10 10 10 10 10 10 11 11 11 11 12 12 13 13 13 13 13 13 13 13 13 12 13 13 14 13 13 13 13 13 13 14 14 14 14 15
10 10 10 9 9 10 10 10 10 10 10 10 10 10 10 10 11 11 12 13 13 13 13 13 13 13 13 13 13 13 13 13 13 13 13 13 12 13 13 14 13 14 15
11 10 10 10 10 10 10 10 10 10 10 10 10 10 10 11 11 12 12 13 14 14 14 14 14 14 14 14 13 13 13 13 13 13 13 13 13 14 14 13 14 14 15
11 10 10 11 11 11 10 11 11 11 10 10 11 11 11 12 12 12 13 13 14 14 14 14 14 14 14 13 13 14 14 13 13 13 13 13 13 13 14 14 14 15 15
12 11 11 11 11 12 12 12 11 11 12 12 12 12 13 13 13 13 14 14 14 14 14 14 14 14 15 14 14 14 14 14 14 14 14 13 13 14 14 14 14 15 15
13 12 12 12 12 12 13 13 13 13 13 13 13 14 14 14 14 14 14 15 15 14 14 14 14 15 15 15 15 14 15 15 15 14 14 14 14 15 15 15 15 15 16
15 15 14 14 14 14 14 14 14 14 14 14 15 15 15 15 15 15 15 15 15 15 15 15 15 15 15 15 15 15 15 16 15 16 16 16 16 16 17 17 17 17 17
17 17 16 16 15 15 16 15 15 15 15 15 15 15 15 16 16 15 16 16 16 16 16 16 15 15 14 14 15 15 16 16 16 16 17 17 17 18 18 18 18 19 19
18 18 18 17 17 17 17 17 16 16 16 16 16 16 16 16 16 16 16 16 16 16 16 16 16 16 15 16 16 16 16 16 16 17 17 18 18 19 19 19 19 20 20
19 20 20 19 19 19 18 18 18 18 18 18 17 17 17 17 16 16 16 16 16 16 16 16 17 17 17 17 17 17 17 17 18 18 18 19 19 19 19 20 20 21 21
19 20 20 20 20 20 20 20 19 19 19 19 19 18 18 18 18 18 17 17 18 18 18 18 18 18 18 18 18 18 18 18 18 19 19 20 20 20 20 21 21 21 22
19 18 19 20 21 21 21 21 21 20 20 20 20 20 19 19 19 19 19 19 19 19 18 19 19 19 19 19 19 19 19 19 20 20 20 20 21 21 21 22 22 22 22
20 20 20 20 21 21 22 22 22 22 22 22 21 21 21 21 20 20 20 20 20 20 20 20 20 20 20 20 20 20 21 21 21 21 21 22 22 22 22 22 22 22 22
21 21 20 21 22 22 22 22 23 23 23 23 23 23 23 22 22 21 21 21 21 21 21 21 21 21 21 21 21 22 22 22 22 22 22 22 22 23 23 22 22 23 23
22 23 22 22 23 23 23 23 24 23 23 24 23 23 23 24 23 23 22 23 23 22 22 22 22 22 23 23 23 23 24 24 23 23 23 23 24 24 24 23 23 23 24
23 23 23 23 23 23 23 24 24 25 25 24 24 24 24 25 24 24 23 24 24 24 24 24 24 24 24 25 25 25 25 24 24 24 24 25 24 25 25 25 25 25 25
25 25 25 25 24 24 24 24 25 25 25 26 26 26 25 25 25 25 25 25 25 25 25 25 25 25 25 25 26 26 26 26 26 26 26 26 26 26 26 26 26 26 26
26 26 26 26 26 25 25 25 25 25 26 25 26 26 26 26 26 26 26 26 26 26 26 26 26 26 26 26 27 27 27 27 28 27 27 27 27 27 27 27 27 27 26
27 27 27 27 27 26 26 26 27 27 27 26 26 26 26 27 27 27 27 27 27 27 27 27 26 26 27 28 28 28 28 28 28 28 28 28 28 28 28 27 28 27 27
28 29 29 28 28 28 28 29 29 28 28 28 28 28 29 29 29 29 29 29 29 29 28 28 28 29 29 29 29 29 29 29 29 29 29 29 29 29 29 28 28 28 29
30 30 30 30 30 30 30 30 30 30 30 30 30 30 29 29 29 30 30 30 30 31 31 31 31 31 31 31 31 31 31 31 31 30 31 30 30 30 29 29 29 30 30

GEFSMA_500_meanwind_276.txt.gz
Wind_Speed
11 10 10 10 10 11 11 10 11 11 11 11 11 11 11 11 11 11 11 12 12 12 12 12 12 13 13 13 13 13 13 13 13 14 14 13 13 12 12 12 11 11 11
11 10 10 10 10 10 10 10 10 10 11 11 11 10 11 11 11 11 11 11 11 11 11 11 11 12 12 12 12 12 13 13 13 13 13 13 13 13 13 12 11 11 11
10 10 10 10 11 11 10 10 11 11 11 11 11 11 11 11 11 11 11 10 10 10 11 11 11 11 11 11 11 12 12 12 12 12 13 13 14 14 13 13 12 12 12
11 10 10 11 11 11 11 11 11 11 11 10 11 12 12 11 12 12 12 12 11 11 11 11 11 12 11 11 12 12 12 12 12 12 12 13 13 13 13 13 14 13 12
11 10 10 11 11 11 11 11 11 12 11 11 11 11 12 12 12 12 12 12 12 12 12 12 11 11 11 11 12 12 12 12 12 12 12 12 13 13 13 13 13 13 13
10 10 11 11 11 11 11 11 12 12 12 12 12 12 12 11 12 12 12 11 11 12 12 12 11 11 10 11 11 11 11 12 12 12 12 11 12 12 12 12 12 12 12
12 12 11 12 12 12 12 11 11 12 11 11 11 11 12 11 11 12 12 11 12 12 12 12 12 11 11 11 11 11 11 11 11 11 11 11 11 12 12 12 11 11 11
12 13 13 12 12 12 12 12 12 12 12 12 11 11 11 11 11 12 12 12 12 13 13 13 13 12 12 12 12 13 13 12 12 12 11 11 12 12 13 12 12 12 12
14 13 13 13 13 13 13 12 13 13 13 12 12 12 12 12 12 12 12 12 13 13 13 13 13 13 13 13 13 13 13 13 13 13 12 13 13 13 13 12 12 12 12
15 14 14 14 13 13 13 13 13 13 13 13 13 13 13 13 13 13 13 14 14 14 14 14 14 14 14 14 14 13 13 13 13 13 13 13 13 13 12 13 13 13 13
15 15 15 15 14 14 14 14 14 14 14 14 14 14 15 15 15 15 15 15 15 14 15 15 15 14 14 13 13 13 13 13 13 14 14 13 13 13 13 13 13 13 14
17 16 15 15 15 15 15 15 15 15 15 15 15 15 15 15 15 15 15 15 15 15 15 15 14 14 14 13 13 13 13 13 14 14 15 14 14 14 14 14 14 14 15
17 16 16 15 15 15 16 16 17 17 17 16 17 16 16 16 16 16 16 16 16 15 15 15 15 14 14 14 14 14 14 14 14 15 15 15 15 16 16 15 15 15 16
17 18 18 17 17 16 17 17 18 18 18 17 17 17 17 16 16 16 16 16 16 16 16 16 16 15 15 15 16 16 15 15 15 15 15 15 16 16 16 17 17 17 17
19 19 18 18 18 18 18 18 18 18 18 18 18 18 18 17 17 16 17 17 17 17 17 17 17 17 16 17 17 17 16 17 17 17 17 17 17 17 17 18 18 18 18
19 19 19 19 19 20 20 20 20 20 19 19 19 19 19 18 18 17 18 18 18 18 18 18 18 18 18 17 18 18 18 18 18 18 18 18 18 18 19 19 19 19 19
21 21 21 21 21 21 21 21 21 21 21 20 20 20 19 19 19 19 19 19 19 19 19 19 19 19 19 19 19 19 19 19 19 19 19 19 19 19 20 20 20 20 20
22 22 22 23 23 23 22 22 22 22 22 22 21 21 21 21 21 21 21 20 20 21 21 20 20 20 20 20 20 20 21 21 21 21 21 21 20 21 21 21 21 21 21
23 22 22 23 23 23 23 22 23 22 22 22 22 22 22 22 22 22 23 23 22 22 23 22 22 23 22 22 22 22 22 22 22 22 22 22 22 21 21 22 22 22 22
23 23 23 23 23 23 23 23 23 22 23 23 23 23 23 23 23 24 24 24 24 24 24 24 24 24 24 24 24 24 23 23 23 22 22 22 22 22 22 23 23 23 23
24 25 24 24 24 24 24 24 23 24 24 24 24 24 24 24 25 25 25 25 25 25 25 25 25 25 26 26 26 25 25 25 24 23 23 23 23 24 24 24 24 24 25
25 25 25 25 25 24 24 25 25 25 25 25 25 24 24 24 25 26 26 26 26 25 25 25 25 26 26 26 26 26 26 26 26 25 25 25 25 25 25 25 25 26 26
26 26 26 26 25 25 26 26 26 27 26 26 26 26 25 25 25 25 26 27 27 27 27 26 25 26 26 26 27 27 27 27 27 27 27 26 26 26 26 26 26 26 27
27 27 27 27 26 26 27 27 27 28 28 28 27 27 26 25 26 26 27 27 28 28 29 28 27 27 28 28 28 28 28 28 28 28 29 28 28 28 28 28 28 28 28
28 28 28 28 27 27 28 28 28 29 28 28 28 28 27 26 26 27 28 28 28 29 30 30 29 28 29 30 30 29 29 30 29 29 29 29 29 28 28 28 29 29 29
29 29 29 29 29 28 29 29 29 29 28 29 29 29 29 29 28 29 29 29 30 31 31 31 31 30 30 31 31 31 31 31 31 30 31 31 30 30 29 29 29 30 30